Phuket, Thailand

11:13 PM +07 on August 22, 2017 (GMT +0700)
Phuket International

Weather History for VTSP - January, 2012

Change the Weather History Date:

Friday, January 6, 2012

  Actual Average Record
Temperature  
Mean Temperature 80 °F -  
Max Temperature 90 °F 89 °F 93 °F (2002)
Min Temperature 70 °F 74 °F 68 °F (2017)
Cooling Degree Days 15    
Growing Degree Days 30 (Base 50)    
Moisture  
Dew Point 70 °F    
Average Humidity 72    
Maximum Humidity 94    
Minimum Humidity 49    
Precipitation  
Precipitation 0.00 in 0.05 in - ()
Sea Level Pressure  
Sea Level Pressure 29.92 in    
Wind  
Wind Speed 4 mph ()    
Max Wind Speed 14 mph    
Max Gust Speed -    
Visibility 5.9 miles    
Events      
Averages and records for this station are not official NWS values.
T = Trace of Precipitation, MM = Missing Value Source: Averaged Metar Reports

Daily Weather History Graph

Daily Weather History Graph

Search for Another Location

Airport or City:

Trip Planner

Search our weather history database for the weather conditions in past years. The results will help you decide how hot, cold, wet, or windy it might be!

Date:

Astronomy

Jan. 06, 2012 Rise Set
Actual Time 6:42 AM +07 6:22 PM +07
Civil Twilight 6:19 AM +07 6:44 PM +07
Nautical Twilight 5:53 AM +07 7:11 PM +07
Astronomical Twilight 5:27 AM +07 7:37 PM +07
Moon 3:50 PM +07 (1/6) 3:52 AM +07 (1/6)
Length of Visible Light 12h 25m
Length of Day
11h 40m
Waxing Gibbous, 90% of the Moon is Illuminated
Jan 6
Waxing Gibbous
Jan 9
Full
Jan 16
Last Quarter
Jan 23
New
Jan 31
First Quarter

Hourly Weather History & Observations

Time (+07) Temp. Heat Index Dew Point Humidity Pressure Visibility Wind Dir Wind Speed Gust Speed Precip Events Conditions
12:00 AM 78.8 °F - 68.0 °F 69% 29.95 in 5.6 mi NNE 4.6 mph - N/A   Partly Cloudy
12:30 AM 77.0 °F - 68.0 °F 74% 29.95 in 5.6 mi Variable 3.5 mph - N/A   Partly Cloudy
1:00 AM 77 °F - 72 °F 79% 29.91 in 6 mi Calm Calm - -   Scattered Clouds
1:00 AM 78.8 °F - 68.0 °F 69% 29.95 in 5.6 mi Variable 2.3 mph - N/A   Partly Cloudy
1:30 AM 77.0 °F - 68.0 °F 74% 29.95 in 5.6 mi ENE 4.6 mph - N/A   Partly Cloudy
2:00 AM 73.4 °F - 69.8 °F 88% 29.92 in 5.6 mi Calm Calm - N/A   Partly Cloudy
2:30 AM 73.4 °F - 69.8 °F 88% 29.92 in 5.6 mi Calm Calm - N/A   Partly Cloudy
3:00 AM 71.6 °F - 68.0 °F 88% 29.92 in 5.6 mi Calm Calm - N/A   Partly Cloudy
3:30 AM 71.6 °F - 68.0 °F 88% 29.89 in 5.6 mi Calm Calm - N/A   Partly Cloudy
4:00 AM 71.6 °F - 69.8 °F 94% 29.89 in 5.6 mi Calm Calm - N/A   Partly Cloudy
4:30 AM 71.6 °F - 68.0 °F 88% 29.89 in 5.6 mi Calm Calm - N/A   Partly Cloudy
5:00 AM 71.6 °F - 69.8 °F 94% 29.89 in 5.6 mi Calm Calm - N/A   Partly Cloudy
5:30 AM 71.6 °F - 69.8 °F 94% 29.89 in 5.6 mi Calm Calm - N/A   Partly Cloudy
6:00 AM 71.6 °F - 69.8 °F 94% 29.92 in 5.6 mi Calm Calm - N/A   Partly Cloudy
6:30 AM 71.6 °F - 68.0 °F 88% 29.92 in 5.6 mi Calm Calm - N/A   Scattered Clouds
7:00 AM 71 °F - 69 °F 92% 29.89 in 6 mi Calm Calm - -   Scattered Clouds
7:00 AM 71.6 °F - 68.0 °F 88% 29.92 in 5.6 mi Variable 1.2 mph - N/A   Scattered Clouds
7:30 AM 73.4 °F - 69.8 °F 88% 29.92 in 5.6 mi East 4.6 mph - N/A   Partly Cloudy
8:00 AM 77.0 °F - 69.8 °F 78% 29.92 in 5.6 mi ENE 6.9 mph - N/A   Partly Cloudy
8:30 AM 80.6 °F 83.9 °F 69.8 °F 70% 29.95 in 6.2 mi ENE 6.9 mph - N/A   Partly Cloudy
9:00 AM 80.6 °F 83.9 °F 69.8 °F 70% 29.95 in 6.2 mi East 11.5 mph - N/A   Partly Cloudy
9:30 AM 82.4 °F 86.3 °F 69.8 °F 66% 29.95 in 6.2 mi East 11.5 mph - N/A   Partly Cloudy
10:00 AM 82.4 °F 86.3 °F 69.8 °F 66% 29.95 in 6.2 mi East 12.7 mph - N/A   Partly Cloudy
10:30 AM 84.2 °F 88.4 °F 69.8 °F 62% 29.95 in 6.2 mi East 13.8 mph - N/A   Partly Cloudy
11:00 AM 84.2 °F 88.4 °F 69.8 °F 62% 29.95 in 6.2 mi East 11.5 mph - N/A   Partly Cloudy
11:30 AM 84.2 °F 89.6 °F 71.6 °F 66% 29.95 in 6.2 mi East 11.5 mph - N/A   Partly Cloudy
12:00 PM 86.0 °F 91.8 °F 71.6 °F 62% 29.95 in 6.2 mi East 11.5 mph - N/A   Partly Cloudy
12:30 PM 86.0 °F 91.8 °F 71.6 °F 62% 29.92 in 6.2 mi ENE 9.2 mph - N/A   Partly Cloudy
1:00 PM 86 °F - 70 °F 51% 29.91 in 6 mi East 9.2 mph - -   Scattered Clouds
1:00 PM 86.0 °F 90.4 °F 69.8 °F 58% - 6.2 mi East 10.4 mph - N/A   Partly Cloudy
1:30 PM 87.8 °F 92.6 °F 69.8 °F 55% 29.89 in 6.2 mi East 10.4 mph - N/A   Partly Cloudy
2:00 PM 87.8 °F 92.6 °F 69.8 °F 55% 29.89 in 6.2 mi East 11.5 mph - N/A   Partly Cloudy
2:30 PM 87.8 °F 92.6 °F 69.8 °F 55% 29.86 in 6.2 mi East 8.1 mph - N/A   Partly Cloudy
3:00 PM 87.8 °F 92.6 °F 69.8 °F 55% 29.86 in 6.2 mi East 9.2 mph - N/A   Partly Cloudy
3:30 PM 87.8 °F 92.6 °F 69.8 °F 55% 29.86 in 6.2 mi East 10.4 mph - N/A   Partly Cloudy
4:00 PM 87.8 °F 91.4 °F 68.0 °F 52% 29.86 in 6.2 mi Variable 6.9 mph - N/A   Partly Cloudy
4:30 PM 89.6 °F 93.4 °F 68.0 °F 49% 29.86 in 6.2 mi East 5.8 mph - N/A   Partly Cloudy
5:00 PM 86.0 °F 91.8 °F 71.6 °F 62% 29.86 in 6.2 mi Variable 3.5 mph - N/A   Partly Cloudy
5:30 PM 86.0 °F 90.4 °F 69.8 °F 58% 29.89 in 6.2 mi Variable 2.3 mph - N/A   Partly Cloudy
6:00 PM 84.2 °F 88.4 °F 69.8 °F 62% 29.89 in 5.6 mi WNW 9.2 mph - N/A   Partly Cloudy
6:30 PM 82.4 °F 86.3 °F 69.8 °F 66% 29.89 in 5.0 mi NW 8.1 mph - N/A   Scattered Clouds
7:00 PM 83 °F - 72 °F 63% 29.86 in 6 mi NNW 4.6 mph - -   Scattered Clouds
7:00 PM 82.4 °F 87.2 °F 71.6 °F 70% 29.92 in 5.0 mi NW 6.9 mph - N/A   Scattered Clouds
7:30 PM 82.4 °F 87.2 °F 71.6 °F 70% 29.92 in 5.0 mi NW 9.2 mph - N/A   Scattered Clouds
8:00 PM 80.6 °F 84.6 °F 71.6 °F 74% 29.92 in 5.0 mi NW 4.6 mph - N/A   Scattered Clouds
8:30 PM 80.6 °F 84.6 °F 71.6 °F 74% 29.95 in 6.2 mi NNW 5.8 mph - N/A   Scattered Clouds
9:00 PM 78.8 °F - 73.4 °F 83% 29.98 in 6.2 mi Calm Calm - N/A   Scattered Clouds
10:00 PM 77.0 °F - 71.6 °F 83% 29.98 in 6.2 mi Calm Calm - N/A   Scattered Clouds
10:30 PM 78.8 °F - 71.6 °F 78% 29.98 in 6.2 mi Calm Calm - N/A   Scattered Clouds
11:00 PM 78.8 °F - 71.6 °F 78% 29.98 in 6.2 mi Calm Calm - N/A   Partly Cloudy
11:30 PM 77.0 °F - 71.6 °F 83% 29.98 in 6.2 mi Calm Calm - N/A   Partly Cloudy